Showing default

GLOBALSTAR M072, 31574

Orbit data source: Space-Track

GLOBALSTAR M072, 31574 is a payload satellite owned by Globalstar (US) in LEO that was launched on Tue, 29 May 2007 UTC via a SOYUZ-FG launch vehicle from the Tyuratam Missile And Space Complex (TTMTR). Payload-class satellites include a variety of spacecraft equipped with specific instruments for various scientific and technological missions. These include communications satellites like Starlink; space stations such as the ISS; scientific satellites like the Hubble; Earth observation satellites from companies like Planet Labs, Umbra, and HawkEye 360; GPS; miniature CubeSats for education and research; and military/defense satellites.

Loading next visibility...
Identifier
31574, 2007-020D
Orbit
LEO
Last TLE update
1 day ago
Origin
Manufacturer
SS/Loral
Mission
Operational Commercial Communications
Bus & Motor
LS-400, LS-400 AOCS
Mass
450 kg wet, 380 kg dry
Launch date (UTC)
2007-05-29 (18 years ago)
Launch vehicle
SOYUZ-FG
Launch site
Tyuratam Missile And Space Complex (TTMTR)
Object type
Payload
Rocket body
Debris
Shape & HBR
Box + 2 Pan, 12 m
Radar Cross Section
5.587 m², Large (>1 m²)

Expand to show TLE details & history

TLE from 1 day ago
0 GLOBALSTAR M072
1 31574U 07020D   25119.19578463 -.00000076  00000-0  10554-3 0  9992
2 31574  51.9901 122.3947 0001042 232.4508 208.1410 11.91648990825960
Epoch: 2025-04-29T04:41Z
Definitive object data (Epoch: 2025-04-29T04:41:55.792Z)
Latitude
51.14533°
Longitude
-90.57088°
Altitude
1,725.349 km
Speed
7.02 km/s
True Right ascension
13h 09m 14s
True Declination
50° 59' 50"
Sunlit
Object was in daylight at TLE epoch
Visualization TLE readout
Latitude
25.60432°
Longitude
-10.76308°
Altitude
1,719.345 km
Speed
7.02 km/s
Apparent Right ascension
17h 45m 26s
Apparent Declination
-13° 22' 57"
Sunlit
Object is in daylight
Visualization observer readout
Local Sidereal Time
18:50:05
Azimuth
199.215° SSW
Elevation
34.621°
Doppler factor
1
Orbital elements
Apogee altitude
1,719.691 km
Perigee altitude
1,718.003 km
Semi-major axis
8,096.984 km
Eccentricity
0.0001042
Inclination
51.9901°
RAAN
122.3947°
Arg. of periapsis
232.4508°
True anomaly
208.13537°
Mean anomaly
208.141°
Eccentric anomaly
208.13818°
Mean motion
2.97892 °/min
BSTAR
0.00010554
Orbital period
120.85 mins
Loading maneuver chart data...
Loading SW <> Apogee altitude chart data...
Loading historical data...
Loading historical data...
Loading historical data...
Loading historical data...
Loading historical data...
Loading historical data...
Loading historical data...

GLOBALSTAR M072 Visibility forecast

Observer location: undefined°, undefined°

Span
Click to sort rows by Start time (UTC) header in descending order
Start Az.
Max El. time (UTC)
Max El. Az.
Max El.
End time (UTC)
End Az.
6 mins2025-04-30 11:15:57.205Z199.121° SSW2025-04-30 11:15:57.205Z199.121° SSW29.473°2025-04-30 11:21:57.205Z168.693° S
14 mins2025-05-01 00:37:57.205Z169.853° S2025-05-01 00:44:57.205Z120.998° SE24.699°2025-05-01 00:51:57.205Z72.731° E
19 mins2025-05-01 02:41:57.205Z227.957° WSW2025-05-01 02:50:57.205Z166.85° S44.971°2025-05-01 03:00:57.205Z53.035° ENE
18 mins2025-05-01 04:50:57.205Z276.029° WNW2025-05-01 04:58:57.205Z340.305° N36.277°2025-05-01 05:08:57.205Z57.291° ENE
18 mins2025-05-01 06:59:57.205Z303.697° NW2025-05-01 07:08:57.205Z17.171° NNE35.477°2025-05-01 07:17:57.205Z83.077° E
19 mins2025-05-01 09:07:57.205Z307.867° NW2025-05-01 09:16:57.205Z24.809° NE44.906°2025-05-01 09:26:57.205Z127.195° SE
|